WD6AWP Weather Reports


time (UTC)temp
F
wind
direction
speed
knots
gust
knots
rain 1hr
in
rain 24hr
in
rain mn
in
humidity
%
barometer
mb
20260905184556 81 227 2.6 8.7 0.00 0.00 0.00 69 1014.1
20260905183050 80 217 2.6 9.6 0.00 0.00 0.00 71 1014.2
20260905181542 79 302 2.6 7.0 0.00 0.00 0.00 71 1014.0
20260905180040 79 219 2.6 6.1 0.00 0.00 0.00 72 1014.1
20260905174539 78 279 1.7 7.8 0.00 0.00 0.00 74 1014.1
20260905173038 78 259 2.6 7.0 0.00 0.00 0.00 74 1014.1
20260905171538 78 278 0.9 6.1 0.00 0.00 0.00 75 1014.1
20260905170038 77 275 1.7 5.2 0.00 0.00 0.00 75 1014.2
20260905164537 77 285 0.9 5.2 0.00 0.00 0.00 77 1014.2
20260905163033 76 271 0.9 6.1 0.00 0.00 0.00 78 1014.1
20260905161531 77 280 0.9 3.5 0.00 0.00 0.00 77 1014.0
20260905160026 75 302 0.0 0.0 0.00 0.00 0.00 78 1014.0
20260905154522 74 300 0.0 0.0 0.00 0.00 0.00 81 1013.9
20260905153022 72 34 0.9 2.6 0.00 0.00 0.00 83 1013.6
20260905151512 70 29 0.0 0.0 0.00 0.00 0.00 88 1013.7
20260905150008 68 29 0.0 0.0 0.00 0.00 0.00 94 1013.6
20260905144506 65 30 0.0 0.0 0.00 0.00 0.00 96 1013.4
20260905143013 63 289 0.0 0.0 0.00 0.00 0.00 96 1013.3
20260905141503 61 289 0.0 0.0 0.00 0.00 0.00 95 1013.1
20260905140004 61 289 0.0 0.0 0.00 0.00 0.00 94 1013.0
20260905134505 61 289 0.0 0.0 0.00 0.00 0.00 94 1013.0
20260905133001 62 289 0.0 0.0 0.00 0.00 0.00 94 1012.8
20260905131610 62 289 0.0 0.0 0.00 0.00 0.00 94 1012.7
20260905130100 62 289 0.0 0.0 0.00 0.00 0.00 94 1012.6
20260905124558 62 289 0.0 0.0 0.00 0.00 0.00 94 1012.6
20260905123058 63 289 0.0 0.0 0.00 0.00 0.00 94 1012.5
20260905121554 63 289 0.0 0.0 0.00 0.00 0.00 94 1012.6
20260905120105 63 289 0.0 0.0 0.00 0.00 0.00 94 1012.6
20260905114554 63 289 0.0 0.0 0.00 0.00 0.00 94 1012.7
20260905113052 63 289 0.0 0.0 0.00 0.00 0.00 93 1012.6
20260905111606 64 289 0.0 0.0 0.00 0.00 0.00 94 1012.6
20260905110054 64 289 0.0 0.0 0.00 0.00 0.00 94 1012.8
20260905104547 64 289 0.0 0.0 0.00 0.00 0.00 94 1012.8
20260905103047 64 289 0.0 0.0 0.00 0.00 0.00 93 1012.8
20260905101548 64 289 0.0 0.0 0.00 0.00 0.00 93 1012.8
20260905100046 65 289 0.0 0.0 0.00 0.00 0.00 93 1012.9
20260905094544 65 289 0.0 0.0 0.00 0.00 0.00 93 1012.9
20260905093043 65 289 0.0 0.0 0.00 0.00 0.00 93 1012.8
20260905091541 65 289 0.0 0.0 0.00 0.00 0.00 92 1012.9
20260905090040 65 289 0.0 0.0 0.00 0.00 0.00 93 1013.0
20260905084539 65 289 0.0 0.0 0.00 0.00 0.00 92 1013.0
20260905083037 65 289 0.0 0.0 0.00 0.00 0.00 91 1013.0
20260905081535 66 289 0.0 0.0 0.00 0.00 0.00 92 1013.1
20260905080033 66 289 0.0 0.0 0.00 0.00 0.00 92 1013.2
20260905074532 66 289 0.0 0.0 0.00 0.00 0.00 91 1013.2
20260905073041 67 289 0.0 0.0 0.00 0.00 0.00 91 1013.2
20260905071539 67 289 0.0 0.0 0.00 0.00 0.00 91 1013.2
20260905070027 67 289 0.0 0.0 0.00 0.00 0.00 90 1013.2
20260905064527 67 289 0.0 0.0 0.00 0.00 0.00 89 1013.0
20260905063027 68 289 0.0 0.0 0.00 0.00 0.00 89 1013.0
20260905061529 68 289 0.0 0.0 0.00 0.00 0.00 87 1013.0
20260905060026 68 289 0.0 0.0 0.00 0.00 0.00 87 1013.0
20260905054539 69 289 0.0 0.0 0.00 0.00 0.00 86 1012.9
20260905053025 70 289 0.0 0.0 0.00 0.00 0.00 86 1012.9
20260905051525 70 289 0.0 0.0 0.00 0.00 0.00 86 1012.9
20260905050025 70 289 0.0 3.5 0.00 0.00 0.00 86 1012.9
20260905044523 71 289 2.6 6.1 0.00 0.00 0.00 86 1012.7
20260905043027 71 282 0.9 6.1 0.00 0.00 0.00 85 1012.7
20260905041522 71 283 3.5 7.8 0.00 0.00 0.00 85 1012.5
20260905040023 71 269 5.2 7.8 0.00 0.00 0.00 85 1012.3
20260905034521 72 264 5.2 7.0 0.00 0.00 0.00 85 1012.2
20260905033020 72 276 2.6 8.7 0.00 0.00 0.00 86 1012.0
20260905031520 72 246 4.3 7.8 0.00 0.00 0.00 85 1011.9
20260905030019 72 263 5.2 8.7 0.00 0.00 0.00 85 1011.7
20260905024518 72 283 3.5 8.7 0.00 0.00 0.00 84 1011.6
20260905023020 72 277 3.5 7.0 0.00 0.00 0.00 84 1011.6
20260905021516 72 231 1.7 5.2 0.00 0.00 0.00 83 1011.7
20260905020015 73 222 0.9 7.0 0.00 0.00 0.00 81 1011.9
20260905014513 73 265 0.0 5.2 0.00 0.00 0.00 79 1011.9
20260905013013 74 259 2.6 7.0 0.00 0.00 0.00 78 1011.9
20260905011511 76 244 2.6 7.8 0.00 0.00 0.00 74 1011.9
20260905010012 76 272 2.6 7.0 0.00 0.00 0.00 73 1012.1
20260905004510 77 260 4.3 7.8 0.00 0.00 0.00 71 1012.1
20260905003009 77 275 3.5 7.0 0.00 0.00 0.00 71 1012.2
20260905001509 78 256 2.6 6.1 0.00 0.00 0.00 70 1012.2
20260905000008 78 221 2.6 7.8 0.00 0.00 0.00 70 1012.3
20260904234507 78 254 3.5 9.6 0.00 0.00 0.00 70 1012.2
20260904233007 78 192 4.3 7.8 0.00 0.00 0.00 70 1012.2
20260904231507 78 205 5.2 9.6 0.00 0.00 0.00 70 1012.2
20260904230005 78 213 4.3 8.7 0.00 0.00 0.00 70 1012.3
20260904224505 78 196 4.3 8.7 0.00 0.00 0.00 69 1012.4
20260904223004 79 223 4.3 8.7 0.00 0.00 0.00 68 1012.5
20260904221502 79 219 3.5 9.6 0.00 0.00 0.00 68 1012.5
20260904220003 78 250 3.5 8.7 0.00 0.00 0.00 70 1012.5
20260904214501 78 240 3.5 9.6 0.00 0.00 0.00 70 1012.5
20260904213001 78 244 2.6 8.7 0.00 0.00 0.00 70 1012.6
20260904211603 78 214 4.3 8.7 0.00 0.00 0.00 70 1012.7
20260904210105 78 218 5.2 8.7 0.00 0.00 0.00 71 1012.8
20260904204559 78 232 5.2 9.6 0.00 0.00 0.00 70 1012.8
20260904203058 78 165 3.5 10.4 0.00 0.00 0.00 71 1012.9
20260904201624 78 187 4.3 8.7 0.00 0.00 0.00 70 1013.0
20260904200100 78 182 5.2 10.4 0.00 0.00 0.00 70 1013.1
20260904194605 79 177 4.3 7.8 0.00 0.00 0.00 70 1013.2
20260904193053 78 190 3.5 7.8 0.00 0.00 0.00 70 1013.3
20260904191651 78 209 4.3 8.7 0.00 0.00 0.00 71 1013.6
20260904190049 78 244 3.5 8.7 0.00 0.00 0.00 71 1013.7